Tracking 18980 objects as of 21-Feb-2018
HD Live streaming from Space Station
objects crossing your sky now

MOLNIYA 1-71

Track MOLNIYA 1-71 now!
MOLNIYA 1-71 is classified as:


NORAD ID: 18946
Int'l Code: 1988-017A
Perigee: 1,482.2 km
Apogee: 38,894.9 km
Inclination: 63.9 °
Period: 717.9 minutes
Semi major axis: 26559 km
RCS: 20.0475 m2 (large)
Launch date: March 11, 1988
Source: Commonwealth of Independent States (former USSR) (CIS)
Launch site: TYURATAM MISSILE AND SPACE COMPLEX (TTMTR)
aabbcc
Your satellite tracking list
Your tracking list is empty




NASA's NSSDC Master Catalog

Two Line Element Set (TLE):
1 18946U 88017A   18052.20127536  .00000261  00000-0 -14749-1 0  9990
2 18946  63.8582 302.0423 7043171 267.0265 347.7035  2.00572875219453
Source of the keplerian elements: AFSPC